Weather Roundup
Issued by NWS

Home | Current Version | Previous Version | Graphics & Text | Print | Product List | Glossary Off
Versions: 1 2 3 4 5 6 7 8 9 10 11 12 13 14 15 16 17 18 19 20 21 22 23 24 25 26 27 28 29 30 31 32 33 34 35 36 37 38 39 40 41 42 43 44 45 46 47 48 49 50

000
NZUS93 KARX 261210
HRRWXR

CURRENT HOURLY OBSERVATIONS ACROSS
MUCH OF THE UPPER MISSISSIPPI VALLEY
NATIONAL WEATHER SERVICE LA CROSSE WI
600 AM CST SUN FEB 26 2017


...SOUTHEAST MINNESOTA...


CITY           SKY/WX    TMP DP  RH WIND       PRES   REMARKS
ROCHESTER      CLEAR     21  16  81 SW15      29.75R WCI   8
ROCHESTER/MAYO FAIR      25  18  73 SW10G20   29.75R WCI  15
WINONA         CLOUDY    30  19  64 SW8       29.79S WCI  23
AUSTIN         CLEAR     19  14  79 SW5       29.76R WCI  13
ALBERT LEA     CLEAR     21  16  79 SW8       29.75S WCI  12
DODGE CENTER   NOT AVBL
PRESTON        CLEAR     24  17  73 SW12G18   29.76F WCI  13
OWATONNA       CLEAR     18  12  79 SW10      29.75S WCI   6
FARIBAULT      PTCLDY    19  16  86 SW5       29.76R WCI  13
$$

...ELSEWHERE IN MINNESOTA...


CITY           SKY/WX    TMP DP  RH WIND       PRES   REMARKS
MINNEAPOLIS    PTCLDY    24  16  71 SW8       29.74S WCI  15
INTNL FALLS    LGT SNOW  11   6  81 W3        29.67R
DULUTH         CLOUDY    24  22  91 SW10      29.61F WCI  14
RED WING       PTCLDY    25  16  68 W5        29.76R WCI  19
REDWOOD FALLS  CLOUDY    24  18  77 SW6       29.73R WCI  17
MANKATO          N/A     18  15  88 S8        29.76R WCI   8
WORTHINGTON    CLEAR     20  16  84 SW13      29.74S WCI   7
FAIRMONT       CLEAR     20  16  84 W16       29.76S WCI   6
$$

...SOUTHWEST WISCONSIN...


CITY           SKY/WX    TMP DP  RH WIND       PRES   REMARKS
LA CROSSE      PTCLDY    29  19  66 S10       29.80F WCI  20
PRAIRIE DU CHI MOCLDY    31  17  57 S7        29.84F WCI  24
BOSCOBEL       CLOUDY    29  19  66 SW5       29.86F WCI  24
LONE ROCK      CLOUDY    28  17  63 CALM      29.87F
PLATTEVILLE    CLOUDY    28  21  74 S16       29.86S WCI  17
FORT MC COY    MOCLDY    24  18  76 S3        29.81F
CAMP DOUGLAS   CLEAR     24  16  71 S9        29.80F WCI  14
MAUSTON-NEW LI PTSUNNY   24  17  76 S8        29.81F WCI  15
VIROQUA        FAIR      22  17  84 S8        29.79F WCI  12
WIS DELLS      CLOUDY    24  17  75 S12       29.83F WCI  13
$$

...ELSEWHERE IN WISCONSIN...


CITY           SKY/WX    TMP DP  RH WIND       PRES   REMARKS
MILWAUKEE      CLOUDY    25  17  72 S8        29.96S WCI  16
MADISON        CLOUDY    25  18  74 S9        29.88F WCI  15
GREEN BAY      CLOUDY    22  17  81 S9        29.86F WCI  12
EAU CLAIRE     CLOUDY    21  15  78 S7        29.75S WCI  12
BLACK RVR FLS  FAIR      21  16  81 CALM      29.78F
MEDFORD        CLOUDY    21  15  76 S12       29.72S WCI   9
WAUSAU         CLOUDY    22  15  75 S9        29.75F WCI  12
WIS RAPIDS     CLOUDY    22  18  85 S9        29.80F WCI  12
MARSHFIELD     CLOUDY    21  14  74 S9        29.75F WCI  11
RICE LAKE      FLURRIES  23  18  80 S7        29.72F WCI  15
$$

...NORTHEAST IOWA...


CITY           SKY/WX    TMP DP  RH WIND       PRES   REMARKS
WATERLOO       CLEAR     27  18  69 SW13      29.82F WCI  16
DUBUQUE        CLOUDY    28  19  69 S16       29.86F WCI  16
DECORAH        CLOUDY    28  19  69 S10G17    29.78F WCI  19
MASON CITY     CLEAR     23  16  74 SW13      29.79S WCI  11
CHARLES CITY   CLOUDY    27  21  80 S12       29.80S WCI  16
OELWEIN        PTCLDY    27  21  80 SW12      29.83S WCI  16
$$

...ELSEWHERE IN IOWA...


CITY           SKY/WX    TMP DP  RH WIND       PRES   REMARKS
DES MOINES     PTCLDY    29  20  69 SW12      29.88R WCI  19
IOWA CITY      PTCLDY    32  18  56 S13       29.92F WCI  22
FORT DODGE     CLEAR     21  14  73 SW7       29.81S WCI  13
MARSHALLTOWN   CLEAR     27  19  72 SW14      29.83S WCI  16
CEDAR RAPIDS   CLEAR     28  19  69 S15       29.87S WCI  16
$$

...NORTHERN ILLINOIS...


CITY           SKY/WX    TMP DP  RH WIND       PRES   REMARKS
CHICAGO-OHARE  MOCLDY    25  19  78 S8        30.01S WCI  16
CHICAGO-MIDWAY MOCLDY    25  17  72 S8        30.03S WCI  16
MOLINE         CLOUDY    32  16  51 S14G24    29.94F WCI  22
ROCKFORD       CLOUDY    28  19  69 S12       29.98F WCI  18
PEORIA         CLOUDY    27  17  66 S10       30.04F WCI  17
$$

NOTE: "FAIR" INDICATES FEW OR NO CLOUDS BELOW 12,000 FEET WITH NO
SIGNIFICANT WEATHER AND/OR OBSTRUCTIONS TO VISIBILITY. WIND
SPEEDS ARE IN MILES-PER-HOUR.




USA.gov is the U.S. government's official web portal to all federal, state and local government web resources and services.